| time (UTC) | temp F | wind direction | speed MPH | gust MPH | rain 1hr in | rain 24hr in | rain mn in | humidity % | barometer mb |
| 20260510094543 | 46 | 168 | 5.0 | 6.0 | 0.00 | 0.00 | 0.00 | 75 | 1019.1 |
| 20260510093056 | 46 | 167 | 5.0 | 9.0 | 0.00 | 0.00 | 0.00 | 75 | 1019.1 |
| 20260510091540 | 44 | 145 | 6.0 | 9.0 | 0.00 | 0.00 | 0.00 | 78 | 1019.2 |
| 20260510090050 | 45 | 130 | 4.0 | 5.0 | 0.00 | 0.00 | 0.00 | 76 | 1019.4 |
| 20260510084816 | 47 | 153 | 4.0 | 6.0 | 0.00 | 0.00 | 0.00 | 74 | 1019.4 |
| 20260510083044 | 44 | 143 | 4.0 | 7.0 | 0.00 | 0.00 | 0.00 | 80 | 1019.4 |
| 20260510081546 | 45 | 99 | 4.0 | 6.0 | 0.00 | 0.00 | 0.00 | 78 | 1019.7 |
| 20260510080058 | 42 | 99 | 4.0 | 6.0 | 0.00 | 0.00 | 0.00 | 82 | 1019.6 |
| 20260510074553 | 42 | 62 | 3.0 | 5.0 | 0.00 | 0.00 | 0.00 | 79 | 1019.5 |
| 20260510073103 | 41 | 65 | 0.0 | 4.0 | 0.00 | 0.00 | 0.00 | 85 | 1019.6 |
| 20260510071600 | 40 | 63 | 2.0 | 4.0 | 0.00 | 0.00 | 0.00 | 83 | 1019.6 |
| 20260510070105 | 43 | 137 | 3.0 | 5.0 | 0.00 | 0.00 | 0.00 | 80 | 1019.4 |
| 20260510064556 | 45 | 157 | 0.0 | 0.0 | 0.00 | 0.00 | 0.00 | 81 | 1019.4 |
| 20260510063109 | 46 | 157 | 0.0 | 0.0 | 0.00 | 0.00 | 0.00 | 85 | 1019.4 |
| 20260510061602 | 46 | 157 | 0.0 | 0.0 | 0.00 | 0.00 | 0.00 | 82 | 1019.4 |
| 20260510060108 | 46 | 157 | 0.0 | 0.0 | 0.00 | 0.00 | 0.00 | 81 | 1019.3 |
| 20260510054605 | 46 | 157 | 0.0 | 0.0 | 0.00 | 0.00 | 0.00 | 79 | 1019.3 |
| 20260510053124 | 47 | 157 | 0.0 | 0.0 | 0.00 | 0.00 | 0.00 | 78 | 1019.3 |
| 20260510051610 | 47 | 157 | 0.0 | 0.0 | 0.00 | 0.00 | 0.00 | 75 | 1019.4 |
| 20260510050050 | 48 | 157 | 1.0 | 5.0 | 0.00 | 0.00 | 0.00 | 73 | 1019.4 |
| 20260510044840 | 50 | 151 | 6.0 | 9.0 | 0.00 | 0.00 | 0.00 | 71 | 1019.4 |
| 20260510043338 | 51 | 143 | 8.0 | 12.0 | 0.00 | 0.00 | 0.00 | 71 | 1019.2 |
| 20260510041610 | 52 | 142 | 10.0 | 11.0 | 0.00 | 0.00 | 0.00 | 71 | 1019.2 |
| 20260510040348 | 53 | 135 | 9.0 | 12.0 | 0.00 | 0.00 | 0.00 | 69 | 1019.2 |
| 20260510034607 | 53 | 138 | 9.0 | 12.0 | 0.00 | 0.00 | 0.00 | 66 | 1019.0 |
| 20260510033114 | 53 | 132 | 9.0 | 12.0 | 0.00 | 0.00 | 0.00 | 66 | 1018.9 |
| 20260510031613 | 54 | 132 | 9.0 | 11.0 | 0.00 | 0.00 | 0.00 | 66 | 1018.8 |
| 20260510030117 | 54 | 133 | 7.0 | 11.0 | 0.00 | 0.00 | 0.00 | 64 | 1018.7 |
| 20260510024555 | 56 | 128 | 8.0 | 11.0 | 0.00 | 0.00 | 0.00 | 60 | 1018.2 |
| 20260510023101 | 58 | 126 | 8.0 | 11.0 | 0.00 | 0.00 | 0.00 | 56 | 1018.4 |
| 20260510021600 | 59 | 111 | 10.0 | 13.0 | 0.00 | 0.00 | 0.00 | 53 | 1018.1 |
| 20260510020056 | 64 | 111 | 5.0 | 8.0 | 0.00 | 0.00 | 0.00 | 46 | 1018.3 |
| 20260510014541 | 64 | 240 | 2.0 | 4.0 | 0.00 | 0.00 | 0.00 | 42 | 1018.4 |
| 20260510013039 | 64 | 242 | 1.0 | 5.0 | 0.00 | 0.00 | 0.00 | 42 | 1018.5 |
| 20260510011545 | 64 | 268 | 2.0 | 10.0 | 0.00 | 0.00 | 0.00 | 41 | 1018.2 |
| 20260510010043 | 64 | 242 | 4.0 | 8.0 | 0.00 | 0.00 | 0.00 | 41 | 1018.2 |
| 20260510004543 | 64 | 261 | 5.0 | 10.0 | 0.00 | 0.00 | 0.00 | 41 | 1018.5 |
| 20260510003051 | 64 | 290 | 9.0 | 13.0 | 0.00 | 0.00 | 0.00 | 41 | 1018.5 |
| 20260510001540 | 65 | 245 | 8.0 | 12.0 | 0.00 | 0.00 | 0.00 | 41 | 1018.2 |
| 20260510000049 | 64 | 257 | 2.0 | 8.0 | 0.00 | 0.00 | 0.00 | 40 | 1018.2 |
| 20260509234554 | 65 | 217 | 6.0 | 9.0 | 0.00 | 0.00 | 0.00 | 41 | 1018.2 |
| 20260509233041 | 65 | 259 | 7.0 | 11.0 | 0.00 | 0.00 | 0.00 | 40 | 1018.0 |
| 20260509231552 | 65 | 284 | 6.0 | 10.0 | 0.00 | 0.00 | 0.00 | 38 | 1018.2 |
| 20260509230333 | 64 | 277 | 5.0 | 9.0 | 0.00 | 0.00 | 0.00 | 37 | 1018.2 |
| 20260509224559 | 65 | 290 | 2.0 | 11.0 | 0.00 | 0.00 | 0.00 | 38 | 1018.2 |
| 20260509223056 | 65 | 333 | 0.0 | 8.0 | 0.00 | 0.00 | 0.00 | 38 | 1018.3 |
| 20260509221547 | 65 | 269 | 5.0 | 8.0 | 0.00 | 0.00 | 0.00 | 36 | 1018.6 |
| 20260509220056 | 64 | 246 | 0.0 | 8.0 | 0.00 | 0.00 | 0.00 | 38 | 1018.4 |
| 20260509214553 | 64 | 330 | 2.0 | 9.0 | 0.00 | 0.00 | 0.00 | 39 | 1018.6 |
| 20260509213056 | 64 | 210 | 1.0 | 8.0 | 0.00 | 0.00 | 0.00 | 38 | 1018.7 |
| 20260509211609 | 64 | 303 | 1.0 | 5.0 | 0.00 | 0.00 | 0.00 | 39 | 1018.7 |
| 20260509210109 | 64 | 252 | 1.0 | 7.0 | 0.00 | 0.00 | 0.00 | 39 | 1018.8 |
| 20260509204829 | 64 | 271 | 4.0 | 9.0 | 0.00 | 0.00 | 0.00 | 37 | 1018.6 |
| 20260509203124 | 63 | 67 | 2.0 | 5.0 | 0.00 | 0.00 | 0.00 | 37 | 1018.7 |
| 20260509201616 | 64 | 333 | 3.0 | 8.0 | 0.00 | 0.00 | 0.00 | 36 | 1018.6 |
| 20260509200121 | 64 | 309 | 1.0 | 5.0 | 0.00 | 0.00 | 0.00 | 36 | 1018.5 |
| 20260509194547 | 63 | 293 | 6.0 | 10.0 | 0.00 | 0.00 | 0.00 | 36 | 1018.6 |
| 20260509193111 | 63 | 192 | 2.0 | 7.0 | 0.00 | 0.00 | 0.00 | 35 | 1018.7 |
| 20260509191549 | 63 | 292 | 2.0 | 7.0 | 0.00 | 0.00 | 0.00 | 36 | 1018.7 |
| 20260509190106 | 63 | 319 | 3.0 | 7.0 | 0.00 | 0.00 | 0.00 | 36 | 1018.7 |
| 20260509184606 | 62 | 105 | 0.0 | 7.0 | 0.00 | 0.00 | 0.00 | 37 | 1018.5 |
| 20260509183053 | 63 | 199 | 6.0 | 10.0 | 0.00 | 0.00 | 0.00 | 37 | 1018.7 |
| 20260509181547 | 62 | 263 | 0.0 | 4.0 | 0.00 | 0.00 | 0.00 | 38 | 1018.5 |
| 20260509180054 | 62 | 154 | 0.0 | 4.0 | 0.00 | 0.00 | 0.00 | 37 | 1018.6 |
| 20260509174555 | 62 | 79 | 2.0 | 6.0 | 0.00 | 0.00 | 0.00 | 38 | 1018.8 |
| 20260509173107 | 61 | 289 | 5.0 | 8.0 | 0.00 | 0.00 | 0.00 | 39 | 1018.5 |
| 20260509171618 | 60 | 284 | 4.0 | 10.0 | 0.00 | 0.00 | 0.00 | 39 | 1018.5 |
| 20260509170326 | 61 | 269 | 7.0 | 9.0 | 0.00 | 0.00 | 0.00 | 39 | 1018.4 |
| 20260509164600 | 61 | 280 | 6.0 | 9.0 | 0.00 | 0.00 | 0.00 | 40 | 1018.1 |
| 20260509163124 | 62 | 314 | 3.0 | 7.0 | 0.00 | 0.00 | 0.00 | 41 | 1018.3 |
| 20260509161552 | 60 | 284 | 1.0 | 6.0 | 0.00 | 0.00 | 0.00 | 41 | 1018.0 |
| 20260509160051 | 59 | 277 | 2.0 | 6.0 | 0.00 | 0.00 | 0.00 | 46 | 1018.1 |
| 20260509154558 | 58 | 305 | 3.0 | 7.0 | 0.00 | 0.00 | 0.00 | 46 | 1017.9 |
| 20260509153052 | 57 | 232 | 2.0 | 5.0 | 0.00 | 0.00 | 0.00 | 48 | 1017.8 |
| 20260509151558 | 56 | 227 | 0.0 | 4.0 | 0.00 | 0.00 | 0.00 | 49 | 1017.8 |
| 20260509150127 | 55 | 227 | 3.0 | 5.0 | 0.00 | 0.00 | 0.00 | 50 | 1017.7 |
| 20260509144710 | 55 | 110 | 0.0 | 3.0 | 0.00 | 0.00 | 0.00 | 52 | 1017.4 |
| 20260509143110 | 54 | 61 | 0.0 | 6.0 | 0.00 | 0.00 | 0.00 | 54 | 1017.4 |
| 20260509141835 | 52 | 59 | 3.0 | 6.0 | 0.00 | 0.00 | 0.00 | 55 | 1017.3 |
| 20260509140107 | 52 | 360 | 0.0 | 3.0 | 0.00 | 0.00 | 0.00 | 55 | 1017.2 |
| 20260509134823 | 51 | 360 | 0.0 | 3.0 | 0.00 | 0.00 | 0.00 | 54 | 1016.8 |
| 20260509133037 | 50 | 360 | 0.0 | 3.0 | 0.00 | 0.00 | 0.00 | 56 | 1017.0 |
| 20260509131541 | 50 | 61 | 1.0 | 3.0 | 0.00 | 0.00 | 0.00 | 56 | 1016.8 |
| 20260509124613 | 51 | 40 | 5.0 | 11.0 | 0.00 | 0.00 | 0.00 | 54 | 1016.1 |
| 20260509123103 | 51 | 76 | 7.0 | 11.0 | 0.00 | 0.00 | 0.00 | 55 | 1016.0 |
| 20260509121559 | 51 | 55 | 5.0 | 13.0 | 0.00 | 0.00 | 0.00 | 55 | 1015.7 |
| 20260509120107 | 51 | 46 | 3.0 | 6.0 | 0.00 | 0.00 | 0.00 | 55 | 1015.3 |
| 20260509114543 | 51 | 58 | 7.0 | 10.0 | 0.00 | 0.00 | 0.00 | 54 | 1015.5 |
| 20260509113053 | 51 | 61 | 5.0 | 9.0 | 0.00 | 0.00 | 0.00 | 56 | 1015.4 |
| 20260509111823 | 51 | 47 | 1.0 | 3.0 | 0.00 | 0.00 | 0.00 | 57 | 1015.1 |
| 20260509110043 | 52 | 47 | 3.0 | 4.0 | 0.00 | 0.00 | 0.00 | 55 | 1015.2 |
| 20260509104548 | 53 | 163 | 0.0 | 5.0 | 0.00 | 0.00 | 0.00 | 53 | 1014.9 |
| 20260509103051 | 54 | 32 | 0.0 | 4.0 | 0.00 | 0.00 | 0.00 | 53 | 1014.7 |
| 20260509101555 | 54 | 150 | 4.0 | 8.0 | 0.00 | 0.00 | 0.00 | 53 | 1014.4 |
| 20260509100056 | 53 | 121 | 5.0 | 9.0 | 0.00 | 0.00 | 0.00 | 54 | 1014.2 |